Flag for Brazil Weather past 2 weeks in Ribeirão Prêto, São Paulo, Brazil

Now
81 °F

Clear.


Feels Like: 80 °F
Forecast: 59 / 95 °F
Wind: No wind

Location: Leite Lopes / Ribeir

Current Time: Sep 3, 2015 at 9:19:09 PM

Latest Report: Sep 3, 2015 at 9:00 PM


Visibility: 10 mi

Pressure: 29.95 "Hg (28.14 "Hg at 549m altitude)

Humidity: 32%

Dew point: 48 °F

Location of Ribeirão PrêtoLocation

Historic Weather in Ribeirão Prêto — Graph

°F

Ribeirão Prêto temperature yesterday

Maximum temperature yesterday: 93 °F (at 2:00 PM)
Minimum temperature yesterday: 61 °F (at 6:00 AM)
Average temperature yesterday: 76 °F

Past Weeks' High & Low Weather Summary

 TemperatureHumidityPressure
High95 °F (Aug 31, 2:00 PM)94% (Aug 21, 5:00 AM)30.18 "Hg (Aug 21, 5:00 AM)
Low52 °F (Aug 29, 6:00 AM)13% (Aug 23, 3:00 PM)29.89 "Hg (Aug 24, 3:00 PM)
Average73 °F55%30.04 "Hg
* Reported Aug 19 8:00 PM — Sep 3 8:00 PM, Ribeirão Prêto, Weather by CustomWeather, © 2015

Note: Actual official high and low records may vary slightly from our data, if they occured in-between our weather recording intervals... More about our weather records

Advertising

Ribeirão Prêto weather history for previous 24 hours

 ConditionsComfort  
Time TempWeatherWind HumidityBarometerVisibility
8:00 PM
Thu, Sep 3
86 °FClear.2 mph25%29.95 "Hg10 mi
7:00 PM88 °FClear.3 mph22%29.92 "Hg10 mi
6:00 PM91 °FClear.6 mph28%29.89 "Hg10 mi
5:00 PM93 °FClear.13 mph17%29.89 "Hg6 mi
4:00 PM95 °FClear.10 mph16%29.89 "Hg6 mi
3:00 PM95 °FClear.13 mph16%29.89 "Hg6 mi
2:00 PM95 °FClear.12 mph19%29.92 "Hg6 mi
1:00 PM93 °FClear.6 mph26%29.95 "Hg6 mi
12:00 PM90 °FSunny.8 mph27%29.98 "Hg10 mi
11:00 AM86 °FClear.2 mph38%30.01 "Hg6 mi
10:00 AM79 °FClear.5 mph51%30.04 "Hg6 mi
9:00 AM72 °FClear.7 mph65%30.04 "Hg4 mi
8:00 AM64 °FHaze.7 mph83%30.01 "Hg3 mi
7:00 AM61 °FFog.8 mph88%30.01 "Hg3 mi
6:00 AM63 °FSunny.7 mph83%30.01 "Hg10 mi
5:00 AM63 °FClear.7 mph83%29.98 "Hg10 mi
4:00 AM64 °FClear.5 mph78%29.98 "Hg10 mi
3:00 AM64 °FClear.6 mph78%29.98 "Hg10 mi
2:00 AM66 °FClear.6 mph73%30.01 "Hg10 mi
1:00 AM68 °FClear.6 mph64%30.01 "Hg10 mi
12:00 AM72 °FClear.6 mph57%30.04 "Hg10 mi
11:00 PM
Wed, Sep 2
72 °FClear.5 mph57%30.04 "Hg10 mi
10:00 PM75 °FClear.No wind50%30.04 "Hg10 mi
9:00 PM77 °FClear.6 mph44%30.01 "Hg10 mi
Weather by CustomWeather, © 2015

See weather overviewHow to use our weather pages